Location: Kosice
(0.0000°N, 21.2500°E)
Time: 18:28:08
(UTC+01:00)

DMSP B5D2-2 - Pass Details

Date: 24 January 2021
Orbit: 790 x 806 km, 98.3° (Epoch: 01 March)

Event Time Altitude Azimuth Distance (km) Brightness Sun altitude
Rises 18:17:32 0° 24° (NNE) 3,298 6.9 -7.2°
Reaches altitude 10° 18:19:57 10° 30° (NNE) 2,368 6.1 -7.7°
Maximum altitude 18:24:56 46° 102° (ESE) 1,068 4.4 -8.9°
Drops below altitude 10° 18:29:55 10° 174° (S) 2,367 6.7 -10.1°
Sets 18:32:20 0° 180° (S) 3,297 7.6 -10.7°
